This demonstration page uses our WeatherBlox Daily Observations layout. Learn more.

Left ArrowRight Arrow

39.29038, -76.61219

Hourly Observations for April 21, 2022

Temp ( °F °C ) Dew Point ( °F °C ) Humidity (%) Winds ( mph kmh ) Pressure ( in mb ) Visibility ( mi km ) Precip ( " mm )
12:54 am 00:54 Partly Cloudy 50 10 33 0.6 52 52 VRB 3 6 30.45 1031 10 16 0.00 0.00
1:54 am 01:54 Mostly Cloudy 49 9.4 34 1.1 56 56 Calm 30.45 1031 10 16 0.00 0.00
2:54 am 02:54 Mostly Cloudy 48 8.9 36 2.2 63 63 ESE 3 6 30.44 1031 10 16 0.00 0.00
3:54 am 03:54 Mostly Cloudy 49 9.4 36 2.2 61 61 Calm 30.44 1031 10 16 0.00 0.00
4:54 am 04:54 Mostly Cloudy 48 8.9 37 2.8 66 66 Calm 30.45 1031 10 16 0.00 0.00
5:54 am 05:54 Partly Cloudy 47 8.3 38 3.3 71 71 SSE 3 6 30.44 1031 10 16 0.00 0.00
6:54 am 06:54 Partly Cloudy 47 8.3 39 3.9 74 74 SSE 3 6 30.45 1031 10 16 0.00 0.00
7:54 am 07:54 Mostly Cloudy 50 10 40 4.4 68 68 S 9 15 30.45 1031 10 16 0.00 0.00
8:54 am 08:54 Mostly Cloudy 53 11.7 40 4.4 61 61 SSE 9 15 30.45 1031 10 16 0.00 0.00
9:54 am 09:54 Mostly Cloudy 57 13.9 40 4.4 53 53 SSW 7 11 30.46 1032 10 16 0.00 0.00
10:54 am 10:54 Mostly Cloudy 59 15 39 3.9 48 48 S 13 20 30.44 1031 10 16 0.00 0.00
11:54 am 11:54 Mostly Cloudy 62 16.7 38 3.3 41 41 S 14 22 30.42 1030 10 16 0.00 0.00
12:54 pm 12:54 Mostly Cloudy 66 18.9 39 3.9 37 37 SSW 8 13 30.40 1030 10 16 0.00 0.00
1:54 pm 13:54 Cloudy 66 18.9 40 4.4 39 39 SSE 13 20 30.37 1029 10 16 0.00 0.00
2:54 pm 14:54 Mostly Cloudy 64 17.8 43 6.1 46 46 SE 12 19 30.35 1028 10 16 0.00 0.00
3:54 pm 15:54 Mostly Cloudy 65 18.3 43 6.1 45 45 SE 9 15 30.34 1027 10 16 0.00 0.00
4:54 pm 16:54 Mostly Cloudy 65 18.3 42 5.6 43 43 SE 8 13 30.32 1027 10 16 0.00 0.00
5:54 pm 17:54 Cloudy 67 19.4 42 5.6 41 41 S 7 11 30.31 1026 10 16 0.00 0.00
6:54 pm 18:54 Cloudy 66 18.9 43 6.1 43 43 SSW 8 13 30.31 1027 10 16 0.00 0.00
7:54 pm 19:54 Cloudy 65 18.3 44 6.7 47 47 SSW 3 6 30.32 1027 10 16 0.00 0.00
7:57 pm 19:57 Cloudy 65 18.3 44 6.7 47 47 S 3 6 30.33 1027 10 16 0.00 0.00
8:54 pm 20:54 Cloudy 64 17.8 45 7.2 50 50 SSW 3 6 30.33 1027 10 16 0.00 0.00
9:54 pm 21:54 Mostly Cloudy 61 16.1 45 7.2 56 56 SE 3 6 30.34 1027 10 16 0.00 0.00
10:54 pm 22:54 Partly Cloudy 56 13.3 46 7.8 70 70 Calm 30.34 1027 10 16 0.00 0.00
11:54 pm 23:54 Partly Cloudy 56 13.3 46 7.8 70 70 Calm 30.35 1028 10 16 0.00 0.00

Powered by AerisWeather